Location: Rounton
(54.4000°N, 1.3500°W)
Time: 07:42:57
(UTC+00:00)

Vanguard 1 Rocket - Pass Details

Date: 05 December 2021
Orbit: 651 x 4224 km, 34.3° (Epoch: 19 January)

Event Time Altitude Azimuth Distance (km) Brightness Sun altitude
Rises 02:31:44 0° 219° (SW) 4,593 - -46.7°
Reaches altitude 10° 02:34:50 10° 208° (SSW) 4,014 - -46.4°
Exits shadow 02:43:19 29° 158° (SSE) 3,753 10.3 -45.3°
Maximum altitude 02:44:01 29° 154° (SSE) 3,821 10.4 -45.2°
Drops below altitude 10° 02:58:44 10° 105° (ESE) 6,559 12.2 -43.3°
Sets 03:05:48 0° 97° (E) 8,043 12.9 -42.3°
